Zurück zum Katalog

STARLINK-33723

AktivKommunikationVLEO
NORAD 63593·PAYLOAD·🇺🇸 United States

Gestartet Apr 14, 2025 von Cape Canaveral Space Force Station

Loading…

Nächste Überflüge (nächste 24 Stunden)

TLE

AktuellSource: CelesTrak SupGP

Epoche: Sep 14, 2026, 22:48 UTC

1 63593C 25076AA  26257.95048611 -.00014391  00000+0 -52118-3 0  2578
2 63593  43.0032 332.6876 0001505 275.7540 211.7705 15.27588293    10

Verfolge STARLINK-33723 in Echtzeit mit AllMySat

Download on the App Store